Paris Le Bourget, France

11:05 AM CEST on August 20, 2017 (GMT +0200)
Le Bourget

Weather History for LFPB - January, 2013

Change the Weather History Date:

Saturday, January 26, 2013

  Actual Average Record
Temperature  
Mean Temperature 34 °F -  
Max Temperature 39 °F 46 °F 57 °F (2002)
Min Temperature 28 °F 35 °F 21 °F (2000)
Degree Days  
Heating Degree Days 32    
Moisture  
Dew Point 29 °F    
Average Humidity 88    
Maximum Humidity 100    
Minimum Humidity 80    
Precipitation  
Precipitation 0.00 in 0.06 in - ()
Sea Level Pressure  
Sea Level Pressure 29.87 in    
Wind  
Wind Speed 7 mph ()    
Max Wind Speed 13 mph    
Max Gust Speed -    
Visibility 4.5 miles    
Events Fog    
Averages and records for this station are not official NWS values.
T = Trace of Precipitation, MM = Missing Value Source: Averaged Metar Reports

Daily Weather History Graph

Daily Weather History Graph

Search for Another Location

Airport or City:

Trip Planner

Search our weather history database for the weather conditions in past years. The results will help you decide how hot, cold, wet, or windy it might be!

Date:

Astronomy

Jan. 26, 2013 Rise Set
Actual Time 8:28 AM CET 5:37 PM CET
Civil Twilight 7:53 AM CET 6:12 PM CET
Nautical Twilight 7:15 AM CET 6:51 PM CET
Astronomical Twilight 6:37 AM CET 7:28 PM CET
Moon 5:21 PM CET (1/26) 7:34 AM CET (1/26)
Length of Visible Light 10h 19m
Length of Day
9h 09m
Waxing Gibbous, 99% of the Moon is Illuminated
Jan 26
Waxing Gibbous
Jan 27
Full
Feb 3
Last Quarter
Feb 10
New
Feb 17
First Quarter

Hourly Weather History & Observations

Time (CET) Temp. Windchill Dew Point Humidity Pressure Visibility Wind Dir Wind Speed Gust Speed Precip Events Conditions
12:00 AM 28.4 °F 18.5 °F 24.8 °F 86% 29.83 in 5.0 mi SSE 11.5 mph - N/A   Overcast
12:30 AM 28.4 °F 18.0 °F 24.8 °F 86% 29.83 in 5.0 mi SSE 12.7 mph - N/A   Overcast
1:00 AM 28.4 °F 19.1 °F 24.8 °F 86% 29.80 in 5.0 mi SSE 10.4 mph - N/A   Overcast
1:30 AM 28.4 °F 19.1 °F 24.8 °F 86% 29.80 in 5.6 mi SSE 10.4 mph - N/A   Overcast
2:00 AM 28.4 °F 19.1 °F 24.8 °F 86% 29.80 in 5.6 mi SSE 10.4 mph - N/A   Overcast
2:30 AM 28.4 °F 19.1 °F 24.8 °F 86% 29.77 in 5.6 mi SE 10.4 mph - N/A   Overcast
3:00 AM 28.4 °F 19.7 °F 24.8 °F 86% 29.77 in 5.6 mi SE 9.2 mph - N/A   Overcast
3:30 AM 28.4 °F 19.7 °F 24.8 °F 86% 29.77 in 4.3 mi SE 9.2 mph - N/A   Overcast
4:00 AM 28.4 °F 19.7 °F 24.8 °F 86% 29.77 in 5.0 mi SSE 9.2 mph - N/A   Overcast
4:30 AM 28.4 °F 19.7 °F 24.8 °F 86% 29.77 in 5.6 mi SSE 9.2 mph - N/A   Overcast
5:00 AM 28.4 °F 20.4 °F 24.8 °F 86% 29.77 in 5.6 mi SSE 8.1 mph - N/A   Unknown
5:30 AM 28.4 °F 19.7 °F 24.8 °F 86% 29.77 in 6.2 mi SSE 9.2 mph - N/A   Mostly Cloudy
6:00 AM 28.4 °F 19.7 °F 24.8 °F 86% 29.77 in 6.2 mi SSE 9.2 mph - N/A   Overcast
6:30 AM 28.4 °F 20.4 °F 24.8 °F 86% 29.77 in 6.2 mi SSE 8.1 mph - N/A   Overcast
7:00 AM 28.4 °F 19.1 °F 24.8 °F 86% 29.77 in 6.2 mi South 10.4 mph - N/A   Overcast
7:30 AM 28.4 °F 19.7 °F 24.8 °F 86% 29.77 in 6.2 mi South 9.2 mph - N/A   Overcast
8:00 AM 28.4 °F 20.4 °F 24.8 °F 86% 29.80 in 6.2 mi South 8.1 mph - N/A   Overcast
8:30 AM 30.2 °F 21.3 °F 24.8 °F 80% 29.80 in 6.2 mi South 10.4 mph - N/A   Overcast
9:00 AM 30.2 °F 21.3 °F 24.8 °F 80% 29.83 in 5.6 mi South 10.4 mph - N/A   Overcast
9:30 AM 30.2 °F 21.3 °F 26.6 °F 86% 29.80 in 5.0 mi SSE 10.4 mph - N/A   Overcast
10:00 AM 30.2 °F 21.9 °F 26.6 °F 86% 29.83 in 5.0 mi South 9.2 mph - N/A   Overcast
10:30 AM 30.2 °F 22.6 °F 26.6 °F 86% 29.83 in 5.0 mi South 8.1 mph - N/A   Overcast
11:00 AM 32.0 °F 24.8 °F 28.4 °F 87% 29.83 in 4.3 mi South 8.1 mph - N/A   Overcast
11:30 AM 32.0 °F 25.6 °F 30.2 °F 93% 29.86 in 3.7 mi South 6.9 mph - N/A   Overcast
12:00 PM 33.8 °F 28.6 °F 30.2 °F 87% 29.86 in 3.7 mi South 5.8 mph - N/A   Overcast
12:30 PM 33.8 °F 28.6 °F 30.2 °F 87% 29.86 in 4.3 mi South 5.8 mph - N/A   Overcast
1:00 PM 33.8 °F 29.6 °F 32.0 °F 93% 29.89 in 4.3 mi South 4.6 mph - N/A   Overcast
1:30 PM 35.6 °F - 32.0 °F 87% 29.89 in 4.3 mi SW 2.3 mph - N/A   Overcast
2:00 PM 35.6 °F 32.8 °F 32.0 °F 87% 29.92 in 3.7 mi SW 3.5 mph - N/A   Overcast
2:30 PM 37.4 °F 33.8 °F 33.8 °F 87% 29.92 in 4.3 mi WSW 4.6 mph - N/A   Overcast
3:00 PM 37.4 °F 33.8 °F 35.6 °F 93% 29.92 in 3.7 mi West 4.6 mph - N/A   Overcast
3:30 PM 37.4 °F 34.9 °F 35.6 °F 93% 29.92 in 3.7 mi West 3.5 mph - N/A   Overcast
4:00 PM 39.2 °F 35.9 °F 35.6 °F 87% 29.95 in 4.3 mi WSW 4.6 mph - N/A   Overcast
4:30 PM 39.2 °F 37.0 °F 35.6 °F 87% 29.95 in 4.3 mi SW 3.5 mph - N/A   Mostly Cloudy
5:00 PM 37.4 °F 34.9 °F 35.6 °F 93% 29.95 in 4.3 mi SW 3.5 mph - N/A   Mostly Cloudy
5:30 PM 37.4 °F - 33.8 °F 87% 29.95 in 3.7 mi Variable 1.2 mph - N/A   Scattered Clouds
6:00 PM 37.4 °F - 33.8 °F 87% 29.98 in 3.7 mi Calm Calm - N/A   Unknown
6:30 PM 37.4 °F - 35.6 °F 93% 29.98 in 3.1 mi Calm Calm - N/A   Mist
7:00 PM 33.8 °F - 32.0 °F 93% 29.98 in 1.2 mi ESE 2.3 mph - N/A   Mist
7:30 PM 33.8 °F - 32.0 °F 93% 29.98 in - Calm Calm - N/A   Mist
8:00 PM 33.8 °F - 32.0 °F 93% 29.98 in 1.3 mi SSE 1.2 mph - N/A   Mist
8:30 PM 33.8 °F 30.8 °F 32.0 °F 93% 29.98 in 1.4 mi SSE 3.5 mph - N/A Fog Fog
9:00 PM 33.8 °F 29.6 °F 32.0 °F 93% 29.98 in 2.2 mi South 4.6 mph - N/A   Mist
9:30 PM 33.8 °F 29.6 °F 32.0 °F 93% 29.98 in - South 4.6 mph - N/A   Mist
10:00 PM 33.8 °F 28.6 °F 32.0 °F 93% 29.98 in - SE 5.8 mph - N/A   Mostly Cloudy
10:30 PM 33.8 °F 28.6 °F 32.0 °F 93% 29.98 in 3.7 mi South 5.8 mph - N/A   Unknown
11:00 PM 33.8 °F 27.7 °F 32.0 °F 93% 29.95 in 4.3 mi South 6.9 mph - N/A   Unknown
11:30 PM 33.8 °F 27.7 °F 33.8 °F 100% 29.95 in 5.0 mi South 6.9 mph - N/A   Unknown